Location: Shenandoah County Park
(38.9356°N, 78.4524°W)
Time: 11:29:11
(UTC-05:00)

Explorer 11/Cluster Stage 4 - All Passes

Search period start: 29 January 2023 00:00
Search period end: 08 February 2023 00:00
Orbit: 466 x 1244 km, 28.8° (Epoch: 28 January)

Date Brightness Start Highest point End Pass type
(mag) Time Alt. Az. Time Alt. Az. Time Alt. Az.
29 Jan - 05:59:45 10° SSW 06:05:12 20° SSE 06:10:26 10° ESE visible
29 Jan - 07:46:34 10° SW 07:53:30 33° S 07:59:44 10° ESE daylight
29 Jan - 09:35:07 10° WSW 09:41:51 35° S 09:47:35 10° ESE daylight
29 Jan - 11:24:41 10° WSW 11:29:47 23° SSW 11:34:09 10° SSE daylight
30 Jan - 05:45:52 10° SSW 05:51:42 22° SSE 05:57:22 10° ESE visible
30 Jan - 07:32:53 10° SW 07:40:02 35° S 07:46:32 10° ESE daylight
30 Jan - 09:21:32 10° WSW 09:28:26 36° S 09:34:23 10° ESE daylight
30 Jan - 11:11:12 10° WSW 11:16:23 22° SSW 11:20:53 10° SSE daylight
31 Jan - 05:32:03 10° SSW 05:38:09 24° SSE 05:44:11 10° ESE visible
31 Jan - 07:19:15 10° SW 07:26:32 37° S 07:33:17 10° ESE daylight
31 Jan - 09:07:56 10° WSW 09:14:58 36° S 09:21:09 10° SE daylight
31 Jan - 10:57:43 10° WSW 11:02:57 22° SSW 11:07:33 10° SSE daylight
01 Feb - 05:18:18 10° SSW 05:24:36 26° SSE 05:30:56 10° ESE visible
01 Feb - 07:05:39 10° WSW 07:13:01 38° S 07:19:58 10° ESE daylight
01 Feb - 08:54:22 10° WSW 09:01:29 36° S 09:07:51 10° SE daylight
01 Feb - 10:44:15 10° WSW 10:49:30 21° SSW 10:54:09 10° SSE daylight
02 Feb - 03:21:04 10° SSE 03:23:08 11° SSE 03:25:15 10° SE visible
02 Feb - 05:04:38 10° SW 05:11:03 27° SSE 05:17:36 10° ESE visible
02 Feb - 06:52:04 10° WSW 06:59:29 39° S 07:06:36 10° ESE visible
02 Feb - 08:40:48 10° WSW 08:47:59 36° S 08:54:29 10° SE daylight
02 Feb - 10:30:49 10° WSW 10:36:00 20° SSW 10:40:41 10° SSE daylight
03 Feb - 03:06:42 10° S 03:09:35 12° SSE 03:12:33 10° SE visible
03 Feb - 04:51:01 10° SW 04:57:28 29° SSE 05:04:12 10° ESE visible
03 Feb - 06:38:32 10° WSW 06:45:56 40° S 06:53:12 10° ESE visible
03 Feb - 08:27:16 10° WSW 08:34:27 35° SSW 08:41:05 10° SE daylight
03 Feb - 10:17:24 10° WSW 10:22:28 19° SSW 10:27:08 10° SSE daylight
04 Feb - 02:52:39 10° S 02:56:01 14° SSE 02:59:33 10° ESE visible
04 Feb - 04:37:27 10° SW 04:43:54 30° SSE 04:50:45 10° ESE visible
04 Feb - 06:25:01 10° WSW 06:32:22 40° S 06:39:44 10° ESE visible
04 Feb - 08:13:45 10° WSW 08:20:53 34° SSW 08:27:36 10° SE daylight
04 Feb - 10:04:02 10° WSW 10:08:55 18° SSW 10:13:28 10° S daylight
05 Feb - 02:38:48 10° S 02:42:27 15° SSE 02:46:21 10° ESE visible
05 Feb - 04:23:55 10° SW 04:30:20 31° SSE 04:37:14 10° ESE visible
05 Feb - 06:11:31 10° WSW 06:18:47 40° S 06:26:13 10° ESE visible
05 Feb - 08:00:16 10° WSW 08:07:18 33° SSW 08:14:04 10° SE daylight
05 Feb - 09:50:44 10° WSW 09:55:20 17° SSW 09:59:43 10° S daylight
06 Feb - 02:25:03 10° S 02:28:53 16° SSE 02:33:03 10° ESE visible
06 Feb - 04:10:27 10° SW 04:16:45 32° SSE 04:23:42 10° ESE visible
06 Feb - 05:58:03 10° WSW 06:05:12 40° S 06:12:40 10° ESE visible
06 Feb - 07:46:48 10° WSW 07:53:42 31° SSW 08:00:29 10° SE daylight
06 Feb - 09:37:30 10° WSW 09:41:44 15° SSW 09:45:49 10° S daylight
07 Feb - 02:11:24 10° S 02:15:20 17° SSE 02:19:40 10° ESE visible
07 Feb - 03:57:01 10° SW 04:03:11 33° SSE 04:10:06 10° ESE visible
07 Feb - 05:44:38 10° WSW 05:51:36 39° S 05:59:03 10° ESE visible
07 Feb - 07:33:22 10° WSW 07:40:06 30° SSW 07:46:49 10° SE daylight
07 Feb - 09:24:24 10° WSW 09:28:07 14° SSW 09:31:45 10° S daylight
